User: anonymous   Login
Location: Asheville, NC
(35.6000°N, 82.5500°W)
Time: 08:18:12
(UTC-04:00)
Language:

CUTE-I - Orbit

View from above orbital plane
View from above orbital plane
View from above satellite
View from above satellite

Ground track
Ground track

The orbit data is extracted from the following two-line orbital elements,

1 27844U 03031E   18198.91548595 +.00000027 +00000-0 +31899-4 0  9998
2 27844 098.6861 207.1181 0008565 285.0023 075.0206 14.22123114780522
Epoch (UTC): 17 July 2018 21:58:17
Eccentricity: 0.0008565
inclination: 98.6861°
perigee height: 812 km
apogee height: 824 km
right ascension of ascending node: 207.1181°
argument of perigee: 285.0023°
revolutions per day: 14.22123114
mean anomaly at epoch: 75.0206°
orbit number at epoch: 78052

The dashed part of the orbit path shows where the satellite is in the earth's shadow,  

DLR